Find Starlink 32756

NORAD ID: 62752 Int'l Des: 2025-014 Owner: SPXS Country: US Constellation: starlink operational
LEOCIRCULAR

当前视图

正在加载3D地球...

About Starlink 32756

Starlink 32756 (NORAD 62752) is a starlink constellation satellite (v2 mini) launched Jan 21, 2025 by SPXS of US. It operates in LEO, CIRCULAR orbit with a mass of 730.00 kg.

关于 Starlink 32756

正在加载描述...

即将过境

Passes for default location (London). Set your location on the main map for personalized predictions.

高度历史

Loading altitude history...

两行轨道根数

1 62752U 25014T 26165.72904477 .00023490 00000-0 85974-3 0 9998
2 62752 43.0034 326.7647 0001386 254.4769 105.5929 15.27605743 78093
Epoch: Jun 14, 2026 • Age: 54 hours

当前状态

高度 482.2 km
速度 7.63 km/s
星下点 17.24°N, 143.35°W
发射日期 Jan 21, 2025
运行时间 1.3 years
类型 internet

技术详情

分类 Payload
质量 730.00 kg
干质量 700.00 kg
总质量 730.00 kg
长度 0.30 m
直径 4.10 m
跨度 29.00 m
形状 Box + pan
制造商 SPXS
平台类型 Starlink V2M
阶段状态 In Orbit
所有者/国家 SPXS/US

Most Searched